Location: Gorze? G�rny
(49.8500°N, 19.5000°E)
Time: 04:34:33
(UTC+00:00)

Cosmos 1461 - Pass Details

Date: 13 May 2021
Orbit: 510 x 653 km, 65.0° (Epoch: 20 June)

Event Time Altitude Azimuth Distance (km) Brightness Sun altitude
Exits shadow 21:39:44 40° 209° (SSW) 960 3.6 -20.3°
Maximum altitude 21:41:24 81° 128° (SE) 660 3.0 -20.4°
Drops below altitude 10° 21:46:01 10° 41° (NE) 2,026 6.1 -20.6°
Sets 21:48:17 0° 41° (NE) 2,920 7.0 -20.6°
